Probability
4 2 1 0 0 0 0 0 0 0 0 0 0 0 0 0 0 0 0 0 0 0 0 0 0 0 0 0 0 0 0 0 0 0 0 0 0 0 0 0 0 0 0 0
3 1 0 0 0 0 0 0 0 0 0 0 0 0 0 0 0 0 0 0 0 0 0 0 0 0 0 0 0 0 0 0 0 0 0 0 0 0 0 0 0 0 0 0
1 0 0 1 1 0 0 0 0 0 0 0 0 0 0 0 0 0 0 0 0 0 0 0 0 0 0 0 0 0 0 0 0 0 0 0 0 0 0 0 0 0 0 0
0 0 0 1 1 0 0 0 0 0 0 0 0 0 0 0 0 0 0 0 0 0 0 0 0 0 0 0 0 0 0 0 0 0 0 0 0 0 0 0 0 0 0 0
0 0 0 0 0 0 0 0 0 0 0 0 0 0 0 0 0 0 0 0 0 0 0 0 0 0 0 0 0 0 0 0 0 0 0 0 0 0 0 0 0 0 0 0
0 0 0 0 0 0 0 0 0 0 0 0 0 0 0 0 0 0 0 0 0 0 0 0 0 0 0 0 0 0 0 0 0 0 0 0 0 0 0 0 0 0 0 0
0 0 0 0 0 0 0 0 0 0 0 0 0 0 0 0 0 0 0 0 0 0 0 0 0 0 0 0 0 0 0 0 0 0 0 0 0 0 0 0 0 0 0 0
0 0 0 0 0 0 0 0 0 0 0 0 0 0 0 0 0 0 0 0 0 0 0 0 0 0 0 0 0 0 0 0 0 0 0 0 0 0 0 0 0 0 0 0
0 0 0 0 0 0 0 0 0 0 0 0 0 0 0 0 0 0 0 0 0 0 0 0 0 0 0 0 0 0 0 0 0 0 0 0 0 0 0 0 0 0 0 0
0 0 0 0 0 0 0 0 0 0 0 0 0 0 0 0 0 0 0 0 0 0 0 0 0 0 0 0 0 0 0 0 0 0 0 0 0 0 0 0 0 0 0 0
0 0 0 0 0 0 0 0 0 0 0 0 0 0 0 0 0 0 0 0 0 0 0 0 0 0 0 0 0 0 0 0 0 0 0 0 0 0 0 0 0 0 0 0
0 0 0 0 0 0 0 0 0 0 0 0 0 0 0 0 0 0 0 0 0 0 0 0 0 0 0 0 0 0 0 0 0 0 0 0 0 0 0 0 0 0 0 0
0 0 0 0 0 0 0 0 0 0 0 0 0 0 0 0 0 0 0 0 0 0 0 0 0 0 0 0 0 0 0 0 0 0 0 0 0 0 0 0 0 0 0 0
0 0 0 0 0 0 0 0 0 0 0 0 0 0 0 0 0 0 0 0 0 0 0 0 0 0 0 0 0 0 0 0 0 0 0 0 0 0 0 0 0 0 0 0
0 0 0 0 0 0 0 0 0 0 0 0 0 0 0 0 0 0 0 0 0 0 0 0 0 0 0 0 0 0 0 0 0 0 0 0 0 0 0 0 0 0 0 0
0 0 0 0 0 0 0 0 0 0 0 0 0 0 0 0 0 0 0 0 0 0 0 0 0 0 0 0 0 0 0 0 0 0 0 0 0 0 0 0 0 0 0 0
0 0 0 0 0 0 0 0 0 0 0 0 0 0 0 0 0 0 0 0 0 0 0 0 0 0 0 0 0 0 0 0 0 0 0 0 0 0 0 0 0 0 0 0
0 0 0 0 0 0 0 0 0 0 0 0 0 0 0 0 0 0 0 0 0 0 0 0 0 0 0 0 0 0 0 0 0 0 0 0 0 0 0 0 0 0 0 0
0 0 0 0 0 0 0 0 0 0 0 0 0 0 0 0 0 0 0 0 0 0 0 0 0 0 0 0 0 0 0 0 0 0 0 0 0 0 0 0 0 0 0 0
0 0 0 0 0 0 0 0 0 0 0 0 0 0 0 0 0 0 0 0 0 0 0 0 0 0 0 0 0 0 0 0 0 0 0 0 0 0 0 0 0 0 0 0
0 0 0 0 0 0 0 0 0 0 0 0 0 0 0 0 0 0 0 0 0 0 0 0 0 0 0 0 0 0 0 0 0 0 0 0 0 0 0 0 0 0 0 0
0 0 0 0 0 0 0 0 0 0 0 0 0 0 0 0 0 0 0 0 0 0 0 0 0 0 0 0 0 0 0 0 0 0 0 0 0 0 0 0 0 0 0 0
0 0 0 0 0 0 0 0 0 0 0 0 0 0 0 0 0 0 0 0 0 0 0 0 0 0 0 0 0 0 0 0 0 0 0 0 0 0 0 0 0 0 0 0
0 0 0 0 0 0 0 0 0 0 0 0 0 0 0 0 0 0 0 0 0 0 0 0 0 0 0 0 0 0 0 0 0 0 0 0 0 0 0 0 0 0 0 0
0 0 0 0 0 0 0 0 0 0 0 0 0 0 0 0 0 0 0 0 0 0 0 0 0 0 0 0 0 0 0 0 0 0 0 0 0 0 0 0 0 0 0 0
0 0 0 0 0 0 0 0 0 0 0 0 0 0 0 0 0 0 0 0 0 0 0 0 0 0 0 0 0 0 0 0 0 0 0 0 0 0 0 0 0 0 0 0
Wind_Speed
3 4 5 8 7 5 5 4 5 6 3 5 7 9 9 3 4 6 5 5 5 5 3 3 4 4 3 2 2 1 1 1 1 1 1 2 2 3 3 3 3 3 3 3
4 3 6 5 4 4 3 3 5 5 1 4 4 7 6 2 4 6 7 7 6 4 3 3 4 4 3 3 2 2 2 2 1 1 1 2 2 3 3 3 4 3 3 3
5 4 4 5 5 4 4 5 5 3 3 2 2 7 4 2 1 1 3 4 5 7 7 5 5 4 3 3 4 3 3 2 2 1 1 1 2 2 3 3 3 4 4 4
3 3 3 4 4 6 4 5 4 2 0 3 1 4 6 3 3 1 2 4 5 5 5 5 5 5 5 5 3 3 2 2 2 1 1 1 1 2 3 3 3 5 4 4
3 3 5 5 6 7 5 1 2 1 2 1 1 2 8 3 3 4 4 4 5 5 6 6 6 6 5 4 3 2 2 2 2 1 1 1 2 2 3 3 4 4 4 4
2 2 4 5 2 4 4 5 5 5 4 1 2 3 7 4 5 4 3 5 5 5 5 5 4 3 3 2 2 2 2 3 2 1 1 1 2 3 4 4 4 4 3 4
2 2 2 2 3 2 4 5 4 4 3 4 2 2 9 6 5 5 6 7 6 5 5 5 5 5 4 4 4 3 2 3 3 2 2 2 3 3 3 4 4 4 3 3
1 3 2 2 4 5 4 7 7 4 3 4 2 4 8 5 3 2 3 4 4 5 5 6 6 6 5 5 4 3 3 3 3 2 3 3 2 2 2 3 3 3 3 4
4 4 3 2 2 8 5 3 5 6 2 1 5 6 8 1 1 1 2 3 5 5 6 6 6 5 5 5 5 4 4 3 3 3 3 3 2 2 3 3 3 3 3 4
4 2 3 1 4 4 4 8 5 5 3 2 6 4 5 5 5 3 4 5 6 5 5 5 5 5 5 5 4 3 3 4 3 2 2 2 2 3 3 3 3 4 4 4
3 2 3 1 3 5 4 4 5 5 5 5 2 8 7 7 7 7 8 7 6 6 6 6 5 5 4 3 3 3 3 3 2 2 2 2 2 3 3 3 3 3 4 4
2 4 1 4 3 2 4 6 7 5 3 4 3 9 6 6 6 6 7 6 5 5 5 5 5 4 3 3 3 3 3 3 3 2 2 2 2 2 3 3 4 4 4 4
3 4 2 5 5 2 1 3 4 6 6 5 4 9 5 2 3 5 6 6 4 4 4 4 4 4 4 4 3 3 3 3 2 1 1 1 2 2 3 4 4 4 4 4
4 3 5 5 5 3 2 3 5 6 5 5 8 9 8 6 5 5 6 5 5 4 4 4 4 4 4 4 4 4 3 3 2 1 1 1 2 2 3 3 3 3 3 4
4 2 4 5 5 3 4 4 6 6 8 9 9 9 12 9 8 7 5 5 4 4 5 6 6 5 4 4 4 4 3 2 2 2 2 2 3 2 2 3 3 3 3 3
2 2 1 3 2 2 4 5 6 6 5 7 5 10 11 6 3 4 5 6 7 6 6 6 6 6 5 5 5 4 4 3 2 2 3 2 2 2 2 3 3 3 3 3
1 3 2 3 4 2 5 7 6 5 7 8 9 11 5 4 6 7 8 8 8 8 7 7 7 7 7 6 6 5 4 3 3 3 3 2 2 2 3 3 3 3 3 3
5 4 3 1 2 4 9 4 4 5 7 8 8 7 5 7 5 4 5 8 8 7 7 7 6 6 5 4 4 4 3 3 3 2 2 2 2 3 3 2 3 3 3 2
5 6 4 3 2 6 10 5 4 4 7 6 8 7 3 2 2 3 4 6 7 7 6 6 6 5 5 5 5 5 3 2 2 2 3 3 2 2 2 3 3 3 2 3
4 4 5 4 3 5 9 5 1 2 6 6 5 5 4 6 3 6 4 4 5 5 5 5 5 5 5 4 5 6 4 3 2 3 3 2 2 2 2 3 3 2 2 3
2 3 3 4 4 9 9 4 2 2 8 4 4 5 8 8 7 4 4 4 5 5 5 6 6 5 4 5 6 5 3 3 3 2 1 1 1 1 2 2 2 2 2 3
5 4 5 5 3 9 4 2 5 7 4 3 3 5 7 6 2 3 5 6 7 6 6 7 7 5 3 5 6 5 3 3 1 1 1 1 1 1 1 1 2 2 2 3
6 7 6 9 8 6 3 5 6 3 4 4 4 4 6 5 5 5 5 6 6 7 6 6 7 6 3 3 5 5 3 2 3 2 1 1 2 2 2 2 2 2 2 2
4 2 3 4 8 7 7 6 5 4 5 5 5 4 6 6 6 6 6 6 6 6 6 6 7 6 4 3 3 3 2 3 4 3 1 1 1 2 2 2 2 2 2 2
5 2 2 5 8 8 7 5 4 4 5 5 4 4 6 7 7 7 7 8 7 6 5 6 7 7 5 4 3 2 2 4 4 3 2 1 1 1 2 2 1 1 1 1
6 6 6 8 8 5 9 8 5 5 7 6 5 4 4 7 8 7 8 7 7 7 7 6 6 6 5 5 3 2 3 5 5 3 2 1 1 1 1 2 3 3 3 6
Wind_Direction
136 118 182 197 191 184 179 203 250 258 221 190 233 261 278 260 213 212 210 207 208 215 204 158 154 151 144 147 162 190 222 277 306 324 321 319 313 311 315 312 313 315 312 308
85 209 210 173 168 163 174 219 264 288 235 199 261 277 284 250 220 210 205 205 200 186 164 165 162 161 167 179 194 215 237 265 274 259 256 254 274 288 286 300 316 319 320 314
167 216 169 151 167 178 212 206 233 254 342 17 334 313 314 333 333 200 193 189 185 185 185 184 181 184 184 201 208 214 236 264 284 293 315 331 341 329 332 329 324 321 321 315
191 227 161 168 194 174 237 226 208 215 55 302 17 292 295 319 328 257 203 186 191 193 187 189 190 194 203 213 212 220 240 267 285 307 334 330 329 309 291 295 299 310 315 316
213 184 170 197 212 180 209 117 134 136 153 331 344 208 287 329 281 257 227 208 204 199 191 195 200 205 210 209 209 221 246 270 287 304 294 306 300 280 292 302 312 318 319 318
229 217 196 206 206 165 137 75 57 50 72 312 260 184 280 251 233 244 219 210 206 198 195 201 206 202 213 213 216 219 242 269 284 294 294 278 291 302 316 322 324 322 318 315
341 305 244 156 109 84 103 92 34 1 11 261 290 210 254 259 247 226 212 212 209 196 189 196 201 205 213 217 220 219 232 265 283 290 291 283 283 292 300 306 311 317 320 315
166 281 251 188 175 163 158 139 155 193 230 282 328 250 259 267 282 231 203 199 196 198 200 206 209 209 215 221 219 215 230 255 275 283 288 289 287 285 287 294 300 305 299 299
177 257 290 218 179 133 131 151 154 129 153 304 300 297 305 292 15 91 164 182 208 212 210 213 213 212 216 220 219 213 224 247 264 273 286 296 299 299 302 307 308 303 305 309
160 250 303 300 84 43 134 140 104 111 135 286 307 293 261 263 248 237 226 226 231 225 217 216 214 215 220 221 221 215 219 232 248 267 279 294 298 305 310 316 322 318 318 323
134 142 318 24 167 169 114 98 103 105 141 148 274 278 232 227 224 219 228 227 223 218 215 212 212 212 215 213 210 214 225 235 250 262 277 299 306 317 324 324 320 318 321 329
134 121 277 278 275 196 170 164 148 146 188 160 172 268 263 240 241 222 229 231 223 215 211 205 199 191 197 206 212 219 227 236 245 251 268 285 305 326 332 325 323 324 328 332
135 108 52 353 345 353 153 147 140 121 115 148 171 263 289 281 245 226 225 231 221 209 200 188 182 191 203 209 213 218 225 234 245 239 262 298 317 325 319 316 321 329 334 338
119 122 162 195 226 233 229 171 151 131 146 193 219 249 286 273 251 240 227 221 210 203 193 186 193 204 209 211 212 215 229 229 221 210 248 286 297 302 304 311 320 330 336 342
117 185 223 237 247 237 235 216 181 187 189 192 229 230 250 247 233 230 220 202 190 196 197 197 199 203 204 209 214 214 227 225 206 206 243 268 284 297 310 320 324 329 340 341
110 194 236 294 288 251 257 252 210 214 207 217 241 258 250 247 218 215 209 193 196 203 204 201 198 195 200 206 207 209 222 218 196 211 241 269 293 304 310 314 323 330 333 336
156 152 135 276 303 1 278 245 216 219 212 193 217 242 246 219 218 214 207 198 202 204 200 196 195 197 201 202 197 201 211 199 195 221 247 267 279 291 297 311 327 325 321 331
159 139 142 224 16 251 249 255 217 227 247 219 229 246 226 221 223 221 198 194 204 201 196 195 192 191 193 188 184 183 174 177 196 226 255 268 271 279 295 311 310 308 308 312
162 144 132 137 212 282 295 283 195 203 269 232 222 244 229 157 83 311 218 194 199 195 189 187 181 173 166 170 166 148 152 159 181 232 257 266 261 273 291 300 298 297 304 309
86 109 125 140 173 241 255 268 217 138 283 264 206 211 169 130 144 250 219 177 177 167 160 157 148 137 145 157 144 139 152 159 210 237 252 265 257 261 276 284 290 292 289 291
88 93 148 171 210 258 256 277 119 156 250 273 202 191 172 184 201 210 155 150 152 147 146 141 135 137 152 149 139 142 152 198 228 230 249 319 303 273 275 293 300 304 310 319
189 173 186 153 188 255 270 142 183 226 262 263 222 196 190 207 192 158 155 151 146 140 137 138 132 132 133 142 143 147 181 218 184 138 104 351 339 334 352 344 337 339 343 342
204 193 187 189 214 240 250 231 251 251 261 256 237 226 187 183 188 176 167 160 156 150 146 141 136 130 122 138 148 157 196 168 136 116 90 11 10 7 8 16 358 359 5 1
269 175 173 252 269 270 271 261 263 245 247 262 246 223 185 191 187 178 169 166 160 155 152 144 136 135 141 148 148 163 156 138 126 118 98 54 41 15 13 22 24 24 5 355
243 190 221 265 281 305 298 272 277 286 281 275 263 226 203 186 187 182 176 174 170 160 153 148 147 148 153 146 142 144 139 132 124 116 98 69 50 29 13 16 17 11 10 51
208 195 204 241 249 243 272 286 290 287 282 267 251 246 222 194 190 181 180 176 167 160 152 148 148 148 148 141 135 128 130 134 130 120 106 89 68 44 31 18 10 17 30 35